Weather History for KESN - August, 2014

Change the Weather History Date:

Wednesday, August 27, 2014

  Actual Average Record
Temperature  
Mean Temperature 75 °F -  
Max Temperature 89 °F 87 °F 99 °F (1948)
Min Temperature 61 °F 64 °F 52 °F (1954)
Cooling Degree Days 10    
Growing Degree Days 25 (Base 50)    
Moisture  
Dew Point 64 °F    
Average Humidity 83    
Maximum Humidity 100    
Minimum Humidity 36    
Precipitation  
Precipitation 0.00 in - - ()
Sea Level Pressure  
Sea Level Pressure 30.06 in    
Wind  
Wind Speed 0 mph (NW)    
Max Wind Speed 8 mph    
Max Gust Speed -    
Visibility 9 miles    
Events Fog    
Averages and records for this station are not official NWS values.
T = Trace of Precipitation, MM = Missing Value Source: NWS Daily Summary

Daily Weather History Graph

Daily Weather History Graph

Search for Another Location

Airport or City:

Trip Planner

Search our weather history database for the weather conditions in past years. The results will help you decide how hot, cold, wet, or windy it might be!

Date:

Astronomy

Aug. 27, 2014 Rise Set
Actual Time 6:28 AM EDT 7:42 PM EDT
Civil Twilight 6:01 AM EDT 8:09 PM EDT
Nautical Twilight 5:28 AM EDT 8:42 PM EDT
Astronomical Twilight 4:53 AM EDT 9:16 PM EDT
Moon 8:21 AM EDT (8/27) 8:34 PM EDT (8/27)
Length of Visible Light 14h 08m
Length of Day
13h 13m
Waxing Crescent, 4% of the Moon is Illuminated
Aug 27
Waxing Crescent
Sep 2
First Quarter
Sep 8
Full
Sep 15
Last Quarter
Sep 24
New

Hourly Weather History & Observations

Time (EDT) Temp. Heat Index Dew Point Humidity Pressure Visibility Wind Dir Wind Speed Gust Speed Precip Events Conditions
12:03 AM 66.4 °F - 61.9 °F 85% 30.15 in 10.0 mi Calm Calm - N/A   Clear
12:23 AM 65.8 °F - 62.4 °F 89% 30.13 in 10.0 mi Calm Calm - N/A   Clear
12:44 AM 64.8 °F - 62.2 °F 92% 30.12 in 10.0 mi Calm Calm - N/A   Clear
1:04 AM 64.8 °F - 64.4 °F 99% 30.12 in 10.0 mi Calm Calm - N/A   Clear
1:24 AM 63.9 °F - 63.1 °F 97% 30.11 in 10.0 mi Calm Calm - N/A   Clear
1:44 AM 64.6 °F - 64.4 °F 99% 30.10 in 10.0 mi Calm Calm - N/A   Clear
2:04 AM 63.5 °F - 63.5 °F 100% 30.09 in 10.0 mi Calm Calm - N/A   Clear
2:24 AM 62.8 °F - 62.8 °F 100% 30.09 in 10.0 mi Calm Calm - N/A   Clear
2:44 AM 63.0 °F - 63.0 °F 100% 30.09 in 10.0 mi Calm Calm - N/A   Clear
3:04 AM 63.3 °F - 63.3 °F 100% 30.09 in 10.0 mi Calm Calm - N/A   Clear
3:24 AM 62.8 °F - 62.8 °F 100% 30.09 in 10.0 mi Calm Calm - N/A   Clear
3:44 AM 62.6 °F - 62.6 °F 100% 30.09 in 10.0 mi Calm Calm - N/A   Clear
4:04 AM 62.2 °F - 62.2 °F 100% 30.09 in 10.0 mi Calm Calm - N/A   Clear
4:24 AM 62.4 °F - 62.4 °F 100% 30.08 in 10.0 mi Calm Calm - N/A   Clear
4:44 AM 61.9 °F - 61.9 °F 100% 30.09 in 10.0 mi Calm Calm - N/A   Clear
5:04 AM 62.1 °F - 62.1 °F 100% 30.09 in 10.0 mi Calm Calm - N/A   Clear
5:24 AM 62.6 °F - 62.6 °F 100% 30.09 in 10.0 mi Calm Calm - N/A   Clear
5:44 AM 63.0 °F - 63.0 °F 100% 30.09 in 10.0 mi Calm Calm - N/A   Clear
5:50 AM 75.2 °F - 60.8 °F 61% 30.10 in 5.0 mi Calm Calm - N/A   Clear
5:53 AM 62.6 °F - 62.6 °F 100% 30.10 in 5.0 mi Calm Calm - N/A   Clear
6:04 AM 62.4 °F - 62.4 °F 100% 30.10 in 10.0 mi Calm Calm - N/A   Clear
6:10 AM 62.6 °F - 62.6 °F 100% 30.10 in 0.2 mi Calm Calm - N/A Fog Fog
6:24 AM 62.6 °F - 62.6 °F 100% 30.10 in 3.0 mi Calm Calm - N/A   Mostly Cloudy
6:25 AM 62.6 °F - 62.6 °F 100% 30.10 in 2.5 mi Calm Calm - N/A   Mostly Cloudy
6:53 AM 62.6 °F - 62.6 °F 100% 30.12 in 2.0 mi Calm Calm - N/A   Scattered Clouds
7:15 AM 62.6 °F - 62.6 °F 100% 30.12 in 5.0 mi Calm Calm - N/A   Scattered Clouds
7:50 AM 64.4 °F - 64.4 °F 100% 30.12 in 7.0 mi Calm Calm - N/A   Partly Cloudy
8:50 AM 73.4 °F - 71.6 °F 94% 30.12 in 10.0 mi Calm Calm - N/A   Clear
9:50 AM 78.8 °F - 69.8 °F 74% 30.11 in 10.0 mi Calm Calm - N/A   Clear
10:53 AM 82.4 °F 85.4 °F 68.0 °F 62% 30.10 in 10.0 mi Calm Calm - N/A   Clear
11:45 AM 84.2 °F 86.6 °F 66.2 °F 55% 30.08 in 10.0 mi Calm Calm - N/A   Clear
12:50 PM 86.0 °F 88.2 °F 66.2 °F 51% 30.06 in 10.0 mi Calm Calm - N/A   Clear
1:50 PM 86.0 °F 88.2 °F 66.2 °F 51% 30.04 in 10.0 mi Calm Calm - N/A   Clear
2:50 PM 89.6 °F 90.1 °F 62.6 °F 40% 30.01 in 10.0 mi WNW 5.8 mph - N/A   Clear
3:50 PM 89.6 °F 88.9 °F 59.0 °F 36% 29.99 in 10.0 mi NNW 8.1 mph - N/A   Clear
4:50 PM 87.8 °F 87.6 °F 60.8 °F 40% 29.98 in 10.0 mi NNW 5.8 mph - N/A   Clear
5:50 PM 87.8 °F 88.5 °F 62.6 °F 43% 29.98 in 10.0 mi NW 5.8 mph - N/A   Clear
6:55 PM 84.2 °F 85.6 °F 64.4 °F 51% 29.95 in 10.0 mi Calm Calm - N/A   Clear
7:50 PM 82.4 °F 84.6 °F 66.2 °F 58% 29.95 in 10.0 mi Calm Calm - N/A   Clear
8:50 PM 77.0 °F - 66.2 °F 69% 29.95 in 10.0 mi Calm Calm - N/A   Clear
10:46 PM 75.2 °F - 68.0 °F 78% 29.95 in 10.0 mi Calm Calm - N/A   Clear
11:06 PM 75.9 °F - 68.4 °F 77% 29.94 in 10.0 mi Calm Calm - N/A   Clear
11:26 PM 75.6 °F - 68.5 °F 79% 29.94 in 10.0 mi Calm Calm - N/A   Clear
11:46 PM 75.2 °F - 68.0 °F 78% 29.94 in 10.0 mi Calm Calm - N/A   Clear